Weather History for KTCM - January, 2014

Change the Weather History Date:

Saturday, January 18, 2014

  Actual Average Record
Temperature  
Mean Temperature 39 °F -  
Max Temperature 48 °F 45 °F 62 °F (2005)
Min Temperature 30 °F 33 °F 16 °F (1993)
Degree Days  
Heating Degree Days 26    
Moisture  
Dew Point 34 °F    
Average Humidity 99    
Maximum Humidity 100    
Minimum Humidity 82    
Precipitation  
Precipitation 0.00 in - - ()
Sea Level Pressure  
Sea Level Pressure 30.22 in    
Wind  
Wind Speed 2 mph (SSW)    
Max Wind Speed 6 mph    
Max Gust Speed -    
Visibility 2 miles    
Events Fog    
Averages and records for this station are not official NWS values.
T = Trace of Precipitation, MM = Missing Value Source: NWS Daily Summary

Daily Weather History Graph

Daily Weather History Graph

Search for Another Location

Airport or City:

Trip Planner

Search our weather history database for the weather conditions in past years. The results will help you decide how hot, cold, wet, or windy it might be!

Date:

Astronomy

Jan. 18, 2014 Rise Set
Actual Time 7:49 AM PST 4:51 PM PST
Civil Twilight 7:15 AM PST 5:25 PM PST
Nautical Twilight 6:37 AM PST 6:03 PM PST
Astronomical Twilight 6:01 AM PST 6:39 PM PST
Moon 7:52 PM PST (1/18) 8:39 AM PST (1/18)
Length of Visible Light 10h 10m
Length of Day
9h 02m
Waning Gibbous, 94% of the Moon is Illuminated
Jan 18
Waning Gibbous
Jan 23
Last Quarter
Jan 30
New
Feb 6
First Quarter
Feb 14
Full

Hourly Weather History & Observations

Time (PST) Temp. Windchill Dew Point Humidity Pressure Visibility Wind Dir Wind Speed Gust Speed Precip Events Conditions
12:03 AM 35.6 °F - 35.6 °F 100% 30.21 in 2.0 mi SSE 1.2 mph - N/A   Overcast
12:08 AM 35.6 °F - 35.6 °F 100% 30.21 in 1.5 mi South 2.3 mph - N/A   Overcast
12:13 AM 35.6 °F 32.8 °F 35.6 °F 100% 30.21 in 1.0 mi South 3.5 mph - N/A   Overcast
12:18 AM 35.6 °F - 35.6 °F 100% 30.21 in 0.8 mi SSE 2.3 mph - N/A   Overcast
12:23 AM 35.6 °F - 35.6 °F 100% 30.21 in 0.8 mi South 2.3 mph - N/A   Mist
12:28 AM 35.6 °F 32.8 °F 35.6 °F 100% 30.21 in 0.8 mi SSW 3.5 mph - N/A   Mist
12:38 AM 35.6 °F - 35.6 °F 100% 30.20 in 0.8 mi SSW 2.3 mph - N/A   Mist
12:48 AM 35.6 °F 32.8 °F 35.6 °F 100% 30.20 in 0.5 mi South 3.5 mph - N/A Fog Fog
12:53 AM 35.6 °F - 35.6 °F 100% 30.20 in 0.5 mi Calm Calm - N/A Fog Fog
12:58 AM 34.7 °F - 34.7 °F 100% 30.22 in 0.5 mi South 2.3 mph - N/A Fog Fog
1:03 AM 33.8 °F 29.6 °F 33.8 °F 100% 30.20 in 0.8 mi South 4.6 mph - N/A   Mist
1:08 AM 33.8 °F 30.8 °F 33.8 °F 100% 30.19 in 0.8 mi South 3.5 mph - N/A   Mist
1:18 AM 33.8 °F 30.8 °F 33.8 °F 100% 30.20 in 0.8 mi SSE 3.5 mph - N/A   Mist
1:38 AM 33.8 °F 29.6 °F 33.8 °F 100% 30.22 in 0.8 mi SW 4.6 mph - N/A   Mist
1:48 AM 33.8 °F - 33.8 °F 100% 30.21 in 0.5 mi SSE 2.3 mph - N/A Fog Fog
1:58 AM 33.6 °F 30.6 °F 33.6 °F 100% 30.23 in 0.5 mi SSE 3.5 mph - N/A Fog Fog
2:03 AM 32.0 °F - 32.0 °F 100% 30.21 in 0.5 mi South 2.3 mph - N/A Fog Fog
2:08 AM 32.0 °F 27.5 °F 32.0 °F 100% 30.22 in 0.5 mi SW 4.6 mph - N/A Fog Fog
2:18 AM 32.0 °F 28.7 °F 32.0 °F 100% 30.21 in 0.5 mi SSE 3.5 mph - N/A Fog Fog
2:23 AM 32.0 °F 28.7 °F 32.0 °F 100% 30.21 in 0.5 mi South 3.5 mph - N/A Fog Fog
2:28 AM 32.0 °F 28.7 °F 32.0 °F 100% 30.22 in 0.8 mi SSW 3.5 mph - N/A   Mist
2:38 AM 32.0 °F 27.5 °F 32.0 °F 100% 30.22 in 0.8 mi South 4.6 mph - N/A   Mist
2:58 AM 32.9 °F 28.5 °F 32.9 °F 100% 30.24 in 1.0 mi South 4.6 mph - N/A   Mist
3:18 AM 32.0 °F 28.7 °F 32.0 °F 100% 30.22 in 0.8 mi South 3.5 mph - N/A   Mist
3:28 AM 32.0 °F - 32.0 °F 100% 30.22 in 0.8 mi Variable 2.3 mph - N/A   Mist
3:33 AM 32.0 °F - 32.0 °F 100% 30.22 in 1.0 mi South 2.3 mph - N/A   Mist
3:48 AM 32.0 °F - 32.0 °F 100% 30.23 in 0.8 mi SW 1.2 mph - N/A   Mist
3:53 AM 32.0 °F - 32.0 °F 100% 30.23 in 0.8 mi South 2.3 mph - N/A   Mist
3:58 AM 32.4 °F - 32.4 °F 100% 30.25 in 0.5 mi East 1.2 mph - N/A Fog Fog
4:03 AM 32.0 °F - 32.0 °F 100% 30.22 in 0.5 mi SSE 2.3 mph - N/A Fog Light Freezing Fog
4:23 AM 32.0 °F - 32.0 °F 100% 30.21 in 0.5 mi ESE 1.2 mph - N/A Fog Light Freezing Fog
4:33 AM 32.0 °F - 32.0 °F 100% 30.22 in 0.8 mi Calm Calm - N/A   Mist
4:38 AM 32.0 °F - 32.0 °F 100% 30.21 in 0.5 mi Calm Calm - N/A Fog Light Freezing Fog
4:48 AM 32.0 °F - 32.0 °F 100% 30.22 in 0.5 mi Calm Calm - N/A Fog Light Freezing Fog
4:58 AM 31.3 °F - 31.3 °F 100% 30.24 in 0.5 mi East 2.3 mph - N/A Fog Light Freezing Fog
5:18 AM 32.0 °F - 32.0 °F 100% 30.22 in 0.5 mi Calm Calm - N/A Fog Light Freezing Fog
5:23 AM 32.0 °F - 32.0 °F 100% 30.22 in 0.8 mi Calm Calm - N/A   Mist
5:28 AM 32.0 °F - 32.0 °F 100% 30.22 in 0.8 mi Calm Calm - N/A   Mist
5:33 AM 32.0 °F - 32.0 °F 100% 30.23 in 0.5 mi Variable 1.2 mph - N/A Fog Light Freezing Fog
5:38 AM 32.0 °F - 32.0 °F 100% 30.22 in 0.5 mi WNW 1.2 mph - N/A Fog Light Freezing Fog
5:58 AM 30.6 °F - 30.6 °F 100% 30.24 in 0.5 mi Calm Calm - N/A Fog Light Freezing Fog
6:28 AM 32.0 °F - 32.0 °F 100% 30.22 in 0.5 mi Calm Calm - N/A Fog Light Freezing Fog
6:38 AM 30.2 °F 26.7 °F 30.2 °F 100% 30.22 in 0.5 mi West 3.5 mph - N/A Fog Light Freezing Fog
6:43 AM 32.0 °F 28.7 °F 32.0 °F 100% 30.23 in 0.5 mi West 3.5 mph - N/A Fog Light Freezing Fog
6:48 AM 32.0 °F - 32.0 °F 100% 30.22 in 0.8 mi WSW 2.3 mph - N/A   Mist
6:53 AM 32.0 °F - 32.0 °F 100% 30.22 in 0.8 mi West 2.3 mph - N/A   Mist
6:58 AM 30.6 °F 27.1 °F 30.6 °F 100% 30.24 in 0.8 mi West 3.5 mph - N/A   Mist
7:03 AM 32.0 °F 27.5 °F 32.0 °F 100% 30.23 in 0.8 mi West 4.6 mph - N/A   Mist
7:28 AM 32.0 °F - 32.0 °F 100% 30.23 in 0.8 mi West 1.2 mph - N/A   Mist
7:33 AM 32.0 °F - 32.0 °F 100% 30.22 in 0.8 mi WSW 2.3 mph - N/A   Mist
7:38 AM 32.0 °F 28.7 °F 32.0 °F 100% 30.23 in 0.5 mi West 3.5 mph - N/A Fog Light Freezing Fog
7:43 AM 32.0 °F - 32.0 °F 100% 30.23 in 0.2 mi SW 2.3 mph - N/A Fog Light Freezing Fog
7:53 AM 32.0 °F - 32.0 °F 100% 30.23 in 0.5 mi SSW 2.3 mph - N/A Fog Light Freezing Fog
7:58 AM 31.5 °F - 31.5 °F 100% 30.25 in 0.8 mi South 2.3 mph - N/A   Overcast
8:03 AM 32.0 °F 28.7 °F 32.0 °F 100% 30.22 in 0.5 mi South 3.5 mph - N/A Fog Light Freezing Fog
8:08 AM 32.0 °F 28.7 °F 32.0 °F 100% 30.23 in 0.5 mi South 3.5 mph - N/A Fog Light Freezing Fog
8:18 AM 32.0 °F 27.5 °F 32.0 °F 100% 30.23 in 0.5 mi SSW 4.6 mph - N/A Fog Light Freezing Fog
8:23 AM 32.0 °F 28.7 °F 32.0 °F 100% 30.24 in 0.8 mi SSW 3.5 mph - N/A   Overcast
8:28 AM 32.0 °F 28.7 °F 32.0 °F 100% 30.24 in 1.0 mi SSW 3.5 mph - N/A   Overcast
8:38 AM 32.0 °F 28.7 °F 32.0 °F 100% 30.25 in 1.2 mi South 3.5 mph - N/A   Overcast
8:53 AM 32.0 °F - 32.0 °F 100% 30.26 in 2.0 mi SSE 2.3 mph - N/A   Overcast
8:58 AM 31.6 °F 28.3 °F 31.6 °F 100% 30.28 in 5.0 mi South 3.5 mph - N/A   Overcast
9:13 AM 32.0 °F 27.5 °F 32.0 °F 100% 30.26 in 10.0 mi South 4.6 mph - N/A   Scattered Clouds
9:58 AM 34.0 °F 29.8 °F 34.0 °F 100% 30.29 in 10.0 mi South 4.6 mph - N/A   Clear
10:58 AM 36.7 °F 32.9 °F 36.7 °F 100% 30.30 in 10.0 mi SSW 4.6 mph - N/A   Clear
11:58 AM 41.2 °F - 41.2 °F 100% 30.28 in 10.0 mi Variable 2.3 mph - N/A   Clear
12:58 PM 44.4 °F - 44.2 °F 99% 30.28 in 10.0 mi Calm Calm - N/A   Scattered Clouds
1:58 PM 46.8 °F - 42.3 °F 84% 30.28 in 10.0 mi West 3.5 mph - N/A   Scattered Clouds
2:18 PM 48.2 °F - 42.8 °F 82% 30.26 in 10.0 mi Variable 1.2 mph - N/A   Mostly Cloudy
2:23 PM 48.2 °F - 42.8 °F 82% 30.26 in 10.0 mi Variable 2.3 mph - N/A   Scattered Clouds
2:53 PM 46.4 °F 43.5 °F 42.8 °F 87% 30.26 in 10.0 mi North 5.8 mph - N/A   Mostly Cloudy
2:58 PM 45.7 °F 42.7 °F 43.2 °F 91% 30.27 in 10.0 mi Variable 5.8 mph - N/A   Mostly Cloudy
3:53 PM 44.6 °F 42.2 °F 42.8 °F 93% 30.25 in 10.0 mi NNW 4.6 mph - N/A   Overcast
3:58 PM 45.1 °F 43.7 °F 42.6 °F 91% 30.27 in 10.0 mi North 3.5 mph - N/A   Overcast
4:58 PM 43.5 °F - 42.1 °F 95% 30.27 in 10.0 mi North 2.3 mph - N/A   Mostly Cloudy
5:58 PM 43.5 °F - 43.3 °F 99% 30.24 in 10.0 mi ENE 2.3 mph - N/A   Overcast
6:58 PM 41.2 °F 39.2 °F 41.0 °F 99% 30.24 in 10.0 mi NW 3.5 mph - N/A   Scattered Clouds
7:58 PM 40.1 °F - 39.9 °F 99% 30.24 in 10.0 mi SSW 2.3 mph - N/A   Scattered Clouds
8:58 PM 36.3 °F 33.7 °F 36.3 °F 100% 30.22 in 4.0 mi Variable 3.5 mph - N/A   Clear
9:58 PM 35.6 °F - 35.6 °F 100% 30.20 in 2.0 mi WSW 2.3 mph - N/A   Clear
10:03 PM 35.6 °F - 35.6 °F 100% 30.18 in 2.0 mi WSW 2.3 mph - N/A   Clear
10:08 PM 35.6 °F - 35.6 °F 100% 30.17 in 1.2 mi WSW 2.3 mph - N/A   Clear
10:13 PM 35.6 °F - 35.6 °F 100% 30.17 in 0.8 mi South 2.3 mph - N/A   Clear
10:18 PM 35.6 °F - 35.6 °F 100% 30.17 in 1.0 mi Calm Calm - N/A   Clear
10:23 PM 35.6 °F - 35.6 °F 100% 30.17 in 2.5 mi Calm Calm - N/A   Clear
10:28 PM 35.6 °F - 35.6 °F 100% 30.17 in 1.2 mi Calm Calm - N/A   Clear
10:33 PM 35.6 °F - 35.6 °F 100% 30.16 in 0.8 mi Calm Calm - N/A   Clear
10:38 PM 35.6 °F - 35.6 °F 100% 30.16 in 0.5 mi Calm Calm - N/A Fog Fog
10:48 PM 35.6 °F - 35.6 °F 100% 30.17 in 0.8 mi Calm Calm - N/A   Clear
10:53 PM 35.6 °F - 35.6 °F 100% 30.17 in 1.0 mi SW 1.2 mph - N/A   Clear
10:58 PM 35.6 °F - 35.6 °F 100% 30.19 in 0.8 mi Calm Calm - N/A   Clear
11:13 PM 32.0 °F - 32.0 °F 100% 30.17 in 1.0 mi Calm Calm - N/A   Clear
11:18 PM 32.0 °F - 32.0 °F 100% 30.17 in 1.2 mi Calm Calm - N/A   Clear
11:23 PM 32.0 °F - 32.0 °F 100% 30.17 in 2.0 mi Calm Calm - N/A   Clear
11:28 PM 33.8 °F - 33.8 °F 100% 30.16 in 4.0 mi Calm Calm - N/A   Clear
11:45 PM 33.8 °F - 33.8 °F 100% 30.17 in 3.0 mi North 2.3 mph - N/A   Partly Cloudy
11:50 PM 33.8 °F - 33.8 °F 100% 30.17 in 1.5 mi NNE 2.3 mph - N/A   Partly Cloudy
11:55 PM 33.8 °F - 33.8 °F 100% 30.17 in 1.0 mi NNE 2.3 mph - N/A   Mist
11:58 PM 33.8 °F - 33.8 °F 100% 30.19 in 0.8 mi NNE 2.3 mph - N/A   Mist